When you browse on this site, cookies collect data to enhance your experience and personalize the content and advertising you see.
Visit our Privacy Policy to learn more. By continuing to use the site, you agree to this use of cookies and data.
  • In Hungary
  • List of Countries
  • For 7 days
  • Water Temperature
  • Satellite Maps
  • Weather Map
  • News
  • Weather Widgets
  • user-avatar
    Login

    Hourly Weather Alexandria

    Today, 18 November, Sunday

    Time Temperature Precipitation Wind Pressure Humidity
    00:00 -2°C° 0 mm 2 mps 762 mmHg 49%
    01:00 -2°C° 0 mm 2 mps 762 mmHg 50%
    02:00 0°C° 0 mm 1 mps 761 mmHg 50%
    03:00 0°C° 0 mm 1 mps 761 mmHg 50%
    04:00 0°C° 0 mm 1 mps 761 mmHg 50%
    05:00 0°C° 0 mm 1 mps 760 mmHg 50%
    06:00 0°C° 0 mm 1 mps 760 mmHg 50%
    07:00 0°C° 0 mm 1 mps 759 mmHg 49%
    08:00 +1°C° 0 mm 1 mps 759 mmHg 48%
    09:00 +1°C° 0 mm 1 mps 759 mmHg 44%
    10:00 +2°C° 0 mm 1 mps 759 mmHg 41%
    11:00 +3°C° 0 mm 1 mps 758 mmHg 38%
    12:00 +3°C° 0 mm 0 mps 758 mmHg 37%
    13:00 +3°C° 0 mm 0 mps 758 mmHg 37%
    14:00 +3°C° 0 mm 0 mps 757 mmHg 36%
    15:00 +2°C° 0 mm 0 mps 757 mmHg 39%
    16:00 +2°C° 0 mm 0 mps 757 mmHg 42%
    17:00 +2°C° 0 mm 1 mps 757 mmHg 45%
    18:00 +1°C° 0 mm 1 mps 757 mmHg 46%
    19:00 +1°C° 0 mm 1 mps 757 mmHg 46%
    20:00 +1°C° 0 mm 1 mps 756 mmHg 47%
    21:00 +1°C° 0 mm 1 mps 756 mmHg 46%
    22:00 +1°C° 0 mm 1 mps 756 mmHg 46%
    23:00 +1°C° 0 mm 1 mps 756 mmHg 45%

    Tomorrow, 19 November, Monday

    Time Temperature Precipitation Wind Pressure Humidity
    00:00 +1°C° 0 mm 1 mps 756 mmHg 46%
    01:00 0°C° 0 mm 1 mps 756 mmHg 46%
    02:00 -2°C° 0 mm 2 mps 756 mmHg 47%
    03:00 -2°C° 0 mm 2 mps 756 mmHg 48%
    04:00 -2°C° 0 mm 2 mps 756 mmHg 48%
    05:00 -2°C° 0 mm 2 mps 756 mmHg 49%
    06:00 -2°C° 0 mm 2 mps 756 mmHg 49%
    07:00 -2°C° 0 mm 3 mps 756 mmHg 49%
    08:00 -2°C° 0 mm 3 mps 756 mmHg 49%
    09:00 -1°C° 0 mm 3 mps 756 mmHg 49%
    10:00 -1°C° 0 mm 4 mps 756 mmHg 49%
    11:00 0°C° 0 mm 4 mps 756 mmHg 48%
    12:00 0°C° 0 mm 4 mps 756 mmHg 51%
    13:00 +1°C° 0 mm 4 mps 756 mmHg 53%
    14:00 +1°C° 0 mm 5 mps 755 mmHg 56%
    15:00 0°C° 0 mm 5 mps 755 mmHg 58%
    16:00 0°C° 0 mm 5 mps 755 mmHg 61%
    17:00 0°C° 0 mm 5 mps 755 mmHg 64%
    18:00 -1°C° 0.1 mm 6 mps 755 mmHg 68%
    19:00 -1°C° 0.1 mm 6 mps 754 mmHg 71%
    20:00 -1°C° 0.1 mm 6 mps 754 mmHg 75%
    21:00 -1°C° 0.3 mm 6 mps 754 mmHg 78%
    22:00 -1°C° 0.3 mm 7 mps 754 mmHg 80%
    23:00 -1°C° 0.3 mm 7 mps 753 mmHg 83%

    Day after tomorrow, 20 November, Tuesday

    Time Temperature Precipitation Wind Pressure Humidity
    00:00 -1°C° 1 mm 7 mps 753 mmHg 84%
    01:00 -2°C° 1 mm 7 mps 753 mmHg 85%
    02:00 -2°C° 1 mm 7 mps 753 mmHg 86%
    03:00 -2°C° 1.2 mm 7 mps 753 mmHg 87%
    04:00 -2°C° 1.2 mm 7 mps 753 mmHg 88%
    05:00 -2°C° 1.2 mm 7 mps 753 mmHg 89%
    06:00 -2°C° 0.3 mm 7 mps 753 mmHg 90%
    07:00 -2°C° 0.3 mm 7 mps 753 mmHg 90%
    08:00 -2°C° 0.3 mm 7 mps 754 mmHg 91%
    09:00 -2°C° 0 mm 6 mps 754 mmHg 91%
    10:00 -2°C° 0 mm 6 mps 755 mmHg 91%
    11:00 -1°C° 0 mm 5 mps 755 mmHg 92%
    12:00 -1°C° 0 mm 5 mps 755 mmHg 91%
    13:00 0°C° 0 mm 4 mps 755 mmHg 89%
    14:00 0°C° 0 mm 4 mps 756 mmHg 88%
    15:00 -1°C° 0 mm 4 mps 756 mmHg 86%
    16:00 -1°C° 0 mm 4 mps 756 mmHg 85%
    17:00 -2°C° 0 mm 4 mps 756 mmHg 83%
    18:00 -1°C° 0 mm 3 mps 756 mmHg 83%
    19:00 -2°C° 0 mm 3 mps 756 mmHg 82%
    20:00 -2°C° 0 mm 3 mps 756 mmHg 81%
    21:00 -4°C° 0 mm 3 mps 756 mmHg 80%
    22:00 -3°C° 0 mm 2 mps 756 mmHg 79%
    23:00 -3°C° 0 mm 2 mps 756 mmHg 78%

    21 November, Wednesday

    Time Temperature Precipitation Wind Pressure Humidity
    00:00 -3°C° 0 mm 2 mps 756 mmHg 78%
    01:00 -4°C° 0 mm 3 mps 756 mmHg 77%
    02:00 -5°C° 0 mm 3 mps 756 mmHg 77%
    03:00 -5°C° 0 mm 3 mps 756 mmHg 78%
    04:00 -5°C° 0 mm 3 mps 756 mmHg 78%
    05:00 -4°C° 0 mm 2 mps 756 mmHg 79%
    06:00 -5°C° 0 mm 3 mps 756 mmHg 80%
    07:00 -5°C° 0 mm 3 mps 756 mmHg 81%
    08:00 -5°C° 0 mm 3 mps 756 mmHg 82%
    09:00 -4°C° 0 mm 3 mps 756 mmHg 81%
    10:00 -2°C° 0 mm 3 mps 756 mmHg 80%
    11:00 -2°C° 0 mm 4 mps 756 mmHg 80%
    12:00 -1°C° 0 mm 3 mps 756 mmHg 80%
    13:00 -1°C° 0 mm 3 mps 755 mmHg 81%
    14:00 0°C° 0 mm 3 mps 755 mmHg 81%
    15:00 -1°C° 0 mm 3 mps 755 mmHg 83%
    16:00 -2°C° 0 mm 4 mps 755 mmHg 84%
    17:00 -3°C° 0 mm 4 mps 755 mmHg 85%
    18:00 -3°C° 0 mm 4 mps 755 mmHg 85%
    19:00 -3°C° 0 mm 4 mps 755 mmHg 85%
    20:00 -4°C° 0 mm 4 mps 756 mmHg 85%
    21:00 -4°C° 0 mm 4 mps 756 mmHg 86%
    22:00 -4°C° 0 mm 4 mps 756 mmHg 86%
    23:00 -4°C° 0 mm 4 mps 756 mmHg 86%

    22 November, Thursday

    Time Temperature Precipitation Wind Pressure Humidity
    00:00 -4°C° 0 mm 4 mps 756 mmHg 86%
    01:00 -5°C° 0 mm 4 mps 756 mmHg 86%
    02:00 -5°C° 0 mm 3 mps 756 mmHg 86%
    03:00 -5°C° 0 mm 4 mps 756 mmHg 86%
    04:00 -5°C° 0 mm 4 mps 756 mmHg 86%
    05:00 -5°C° 0 mm 4 mps 756 mmHg 86%
    06:00 -5°C° 0 mm 4 mps 757 mmHg 86%
    07:00 -5°C° 0 mm 3 mps 757 mmHg 86%
    08:00 -5°C° 0 mm 3 mps 757 mmHg 86%
    09:00 -4°C° 0 mm 3 mps 757 mmHg 82%
    10:00 -3°C° 0 mm 4 mps 758 mmHg 78%
    11:00 -3°C° 0 mm 4 mps 758 mmHg 74%
    12:00 -1°C° 0 mm 3 mps 758 mmHg 73%
    13:00 -1°C° 0 mm 3 mps 758 mmHg 72%
    14:00 -1°C° 0 mm 3 mps 758 mmHg 71%
    15:00 -2°C° 0 mm 3 mps 758 mmHg 74%
    16:00 -4°C° 0 mm 3 mps 758 mmHg 77%
    17:00 -4°C° 0 mm 3 mps 758 mmHg 80%
    18:00 -5°C° 0 mm 3 mps 758 mmHg 81%
    19:00 -5°C° 0 mm 3 mps 759 mmHg 81%
    20:00 -5°C° 0 mm 3 mps 759 mmHg 82%
    21:00 -5°C° 0 mm 3 mps 759 mmHg 83%
    22:00 -6°C° 0 mm 3 mps 759 mmHg 84%
    23:00 -6°C° 0 mm 3 mps 759 mmHg 84%

    23 November, Friday

    Time Temperature Precipitation Wind Pressure Humidity
    00:00 -6°C° 0 mm 3 mps 759 mmHg 85%
    01:00 -6°C° 0 mm 3 mps 760 mmHg 86%
    02:00 -6°C° 0 mm 3 mps 760 mmHg 86%
    03:00 -6°C° 0 mm 3 mps 760 mmHg 87%
    04:00 -6°C° 0 mm 3 mps 760 mmHg 88%
    05:00 -6°C° 0 mm 3 mps 760 mmHg 89%
    06:00 -6°C° 0 mm 3 mps 760 mmHg 89%
    07:00 -6°C° 0 mm 3 mps 760 mmHg 90%
    08:00 -6°C° 0 mm 3 mps 761 mmHg 91%
    09:00 -5°C° 0 mm 3 mps 761 mmHg 87%
    10:00 -4°C° 0 mm 3 mps 761 mmHg 84%
    11:00 -2°C° 0 mm 3 mps 761 mmHg 80%
    12:00 -1°C° 0 mm 2 mps 761 mmHg 79%
    13:00 -1°C° 0 mm 2 mps 761 mmHg 77%
    14:00 -1°C° 0 mm 2 mps 761 mmHg 76%
    15:00 -2°C° 0 mm 2 mps 761 mmHg 78%
    16:00 -3°C° 0 mm 2 mps 761 mmHg 81%
    17:00 -1°C° 0 mm 1 mps 761 mmHg 83%
    18:00 -2°C° 0 mm 1 mps 761 mmHg 84%
    19:00 -2°C° 0 mm 1 mps 761 mmHg 85%
    20:00 -2°C° 0 mm 1 mps 761 mmHg 85%
    21:00 -2°C° 0 mm 1 mps 761 mmHg 86%
    22:00 -3°C° 0 mm 0 mps 761 mmHg 86%
    23:00 -4°C° 0 mm 0 mps 761 mmHg 86%
    Show more